FlightSource - Aviation Photo Database

World Wide Airport Lookup


Search by ICAO
Or
Search by City

FlightSource.ca - Aviation Photo Database - Bob Baker Memorial Airport Information
Airport Identification
Name: Bob Baker Memorial Airport
ICAO: PAIK
IATA:
Airport Location
City: Kiana
Region: AK
Country: United States
Continent: North America
Latitude: 66.976
Longitude: -160.437
Airport Information
Type: Medium Airport
Elevation: 166 Feet ASL
Flight Status: PAIK
More Info: PAIK
Airport Weather    
Metar: PAIK 202356Z AUTO 08007KT 10SM CLR M20/M23 A3020 RMK AO2 SLP236 T12001233 11194 21211 58018 FZRANO
TAF:


Advertisement